Santiago de Compostela, Spain

7:10 PM CET on November 18, 2017 (GMT +0100)
Santiago

Weather History for LEST - November, 2013

Change the Weather History Date:

Friday, November 1, 2013

  Actual Average Record
Temperature  
Mean Temperature 58 °F -  
Max Temperature 60 °F 54 °F 72 °F (2016)
Min Temperature 55 °F 42 °F 39 °F (2004)
Degree Days  
Heating Degree Days 8    
Growing Degree Days 8 (Base 50)    
Moisture  
Dew Point 59 °F    
Average Humidity 100    
Maximum Humidity 100    
Minimum Humidity 100    
Precipitation  
Precipitation 0.00 in - - ()
Sea Level Pressure  
Sea Level Pressure 30.10 in    
Wind  
Wind Speed 12 mph ()    
Max Wind Speed 18 mph    
Max Gust Speed 34 mph    
Visibility 2.2 miles    
Events Rain    
Averages and records for this station are not official NWS values.
T = Trace of Precipitation, MM = Missing Value Source: Averaged Metar Reports

Daily Weather History Graph

Daily Weather History Graph

Search for Another Location

Airport or City:

Trip Planner

Search our weather history database for the weather conditions in past years. The results will help you decide how hot, cold, wet, or windy it might be!

Date:

Astronomy

Nov. 01, 2013 Rise Set
Actual Time 8:08 AM CET 6:25 PM CET
Civil Twilight 7:38 AM CET 6:55 PM CET
Nautical Twilight 7:05 AM CET 7:28 PM CET
Astronomical Twilight 6:32 AM CET 8:01 PM CET
Moon 5:43 AM CET (11/1) 5:13 PM CET (11/1)
Length of Visible Light 11h 16m
Length of Day
10h 17m
Waning Crescent, 5% of the Moon is Illuminated
Nov 1
Waning Crescent
Nov 3
New
Nov 10
First Quarter
Nov 17
Full
Nov 25
Last Quarter

Hourly Weather History & Observations

Time (CET) Temp. Dew Point Humidity Pressure Visibility Wind Dir Wind Speed Gust Speed Precip Events Conditions
12:00 AM 57.2 °F 57.2 °F 100% 30.21 in 6.2 mi SSW 11.5 mph - N/A   Overcast
12:30 AM 57.2 °F 57.2 °F 100% 30.21 in 1.9 mi South 11.5 mph - N/A   Overcast
1:00 AM 57.2 °F 57.2 °F 100% 30.21 in 3.1 mi SSW 11.5 mph - N/A   Overcast
1:30 AM 57.2 °F 57.2 °F 100% 30.18 in 1.9 mi SW 10.4 mph - N/A   Overcast
2:00 AM 55.4 °F 55.4 °F 100% 30.18 in 1.9 mi SW 10.4 mph - N/A   Overcast
2:30 AM 55.4 °F 55.4 °F 100% 30.18 in 1.9 mi SW 10.4 mph - N/A   Overcast
3:00 AM 57.2 °F 57.2 °F 100% 30.18 in 3.1 mi SW 12.7 mph - N/A   Overcast
3:30 AM 55.4 °F 55.4 °F 100% 30.15 in 2.5 mi SW 8.1 mph - N/A   Mostly Cloudy
4:00 AM 55.4 °F 55.4 °F 100% 30.18 in 2.5 mi SW 4.6 mph - N/A   Overcast
4:30 AM 57.2 °F 57.2 °F 100% 30.15 in 6.2 mi SW 9.2 mph - N/A   Light Drizzle
5:00 AM 57.2 °F 57.2 °F 100% 30.15 in 3.1 mi SW 8.1 mph - N/A   Mostly Cloudy
5:30 AM 57.2 °F 57.2 °F 100% 30.15 in 6.2 mi SW 9.2 mph - N/A   Mostly Cloudy
6:00 AM 57.2 °F 57.2 °F 100% 30.12 in 6.2 mi SSW 10.4 mph - N/A   Mostly Cloudy
6:30 AM 57.2 °F 57.2 °F 100% 30.12 in 3.1 mi SSW 11.5 mph 24.2 mph N/A   Mostly Cloudy
7:00 AM 57.2 °F 57.2 °F 100% 30.12 in 3.7 mi SSW 12.7 mph 24.2 mph N/A   Light Drizzle
7:30 AM 57.2 °F 57.2 °F 100% 30.12 in 3.1 mi SSW 13.8 mph 25.3 mph N/A   Light Drizzle
8:00 AM 57.2 °F 57.2 °F 100% 30.12 in 2.5 mi SSW 12.7 mph - N/A   Light Drizzle
8:30 AM 57.2 °F 57.2 °F 100% 30.12 in 2.2 mi SSW 13.8 mph 25.3 mph N/A   Light Drizzle
9:00 AM 57.2 °F 57.2 °F 100% 30.12 in 3.7 mi SSW 16.1 mph 27.6 mph N/A   Light Drizzle
9:30 AM 57.2 °F 57.2 °F 100% 30.12 in 5.0 mi SSW 16.1 mph 27.6 mph N/A   Light Drizzle
10:00 AM 57.2 °F 57.2 °F 100% 30.12 in 1.2 mi SW 13.8 mph 25.3 mph N/A   Light Drizzle
10:30 AM 59.0 °F 59.0 °F 100% 30.12 in 1.2 mi SW 17.3 mph 29.9 mph N/A Rain Light Rain
11:00 AM 59.0 °F 59.0 °F 100% 30.12 in 1.2 mi SW 18.4 mph 33.4 mph N/A Rain Light Rain
11:30 AM 59.0 °F 59.0 °F 100% 30.12 in 2.5 mi SW 15.0 mph 31.1 mph N/A   Drizzle
12:00 PM 59.0 °F 59.0 °F 100% 30.12 in 1.9 mi SW 15.0 mph 26.5 mph N/A   Drizzle
12:30 PM 59.0 °F 59.0 °F 100% 30.09 in 1.9 mi SW 16.1 mph 32.2 mph N/A   Drizzle
1:00 PM 59.0 °F 59.0 °F 100% 30.09 in 1.9 mi SW 17.3 mph - N/A   Drizzle
1:30 PM 59.0 °F 59.0 °F 100% 30.09 in 1.9 mi SW 16.1 mph 32.2 mph N/A Rain Rain
2:00 PM 59.0 °F 59.0 °F 100% 30.06 in 1.2 mi SW 16.1 mph 28.8 mph N/A Rain Rain
2:30 PM 59.0 °F 59.0 °F 100% 30.06 in 1.2 mi SW 17.3 mph 29.9 mph N/A Rain Rain
3:00 PM 59.0 °F 59.0 °F 100% 30.06 in 1.2 mi SW 18.4 mph 34.5 mph N/A Rain Rain
3:30 PM 59.0 °F 59.0 °F 100% 30.06 in 1.2 mi SW 18.4 mph - N/A Rain Rain
4:00 PM 59.0 °F 59.0 °F 100% 30.04 in 0.9 mi SW 18.4 mph 32.2 mph N/A Rain Rain
4:30 PM 59.0 °F 59.0 °F 100% 30.04 in 0.9 mi SW 17.3 mph 29.9 mph N/A Rain Rain
5:00 PM 60.8 °F 60.8 °F 100% 30.04 in 0.9 mi SW 17.3 mph - N/A Rain Rain
5:30 PM 60.8 °F 60.8 °F 100% 30.04 in 1.2 mi SW 17.3 mph 28.8 mph N/A Rain Rain
6:00 PM 60.8 °F 60.8 °F 100% 30.04 in 1.2 mi SW 15.0 mph 28.8 mph N/A Rain Rain
6:30 PM 60.8 °F 60.8 °F 100% 30.04 in 1.2 mi SW 13.8 mph 31.1 mph N/A Rain Rain
7:00 PM 60.8 °F 60.8 °F 100% 30.04 in 0.9 mi SW 15.0 mph 29.9 mph N/A Rain Rain
7:30 PM 60.8 °F 60.8 °F 100% 30.04 in 1.2 mi WSW 15.0 mph 28.8 mph N/A Rain Rain
8:00 PM 60.8 °F 60.8 °F 100% 30.04 in 0.9 mi WSW 15.0 mph 27.6 mph N/A Rain Rain
8:30 PM 60.8 °F 60.8 °F 100% 30.04 in 0.9 mi WSW 13.8 mph - N/A Rain Light Rain
9:00 PM 60.8 °F 60.8 °F 100% 30.01 in 0.9 mi SW 15.0 mph 29.9 mph N/A Rain Rain
9:30 PM 60.8 °F 60.8 °F 100% 30.01 in 1.2 mi SW 16.1 mph 28.8 mph N/A Rain Rain
10:00 PM 60.8 °F 60.8 °F 100% 30.01 in 0.9 mi WSW 16.1 mph 29.9 mph N/A Rain Rain
10:30 PM 60.8 °F 60.8 °F 100% 30.01 in 1.2 mi WSW 13.8 mph 25.3 mph N/A Rain Rain
11:00 PM 60.8 °F 60.8 °F 100% 30.01 in 2.5 mi WSW 16.1 mph 28.8 mph N/A Rain Rain
11:30 PM 60.8 °F 60.8 °F 100% 30.01 in 1.9 mi WSW 15.0 mph 27.6 mph N/A Rain Rain